TimeEDT,TemperatureF,Dew PointF,Humidity,Sea Level PressureIn,VisibilityMPH,Wind Direction,Wind SpeedMPH,Gust SpeedMPH,PrecipitationIn,Events,Conditions,WindDirDegrees,DateUTC
12:16 AM,50.4,41.0,70,29.93,10.0,North,4.6,-,N/A,,Overcast,350,2013-06-30 04:16:00
12:36 AM,51.6,41.0,67,29.93,10.0,North,4.6,-,N/A,,Overcast,350,2013-06-30 04:36:00
12:56 AM,51.3,41.7,70,29.93,10.0,North,6.9,-,N/A,,Overcast,360,2013-06-30 04:56:00
1:17 AM,51.1,42.1,71,29.93,10.0,North,5.8,-,N/A,,Scattered Clouds,350,2013-06-30 05:17:00
1:36 AM,52.2,41.9,68,29.93,10.0,North,3.5,-,N/A,,Clear,10,2013-06-30 05:36:00
1:56 AM,51.4,43.0,73,29.93,10.0,North,6.9,-,N/A,,Clear,10,2013-06-30 05:56:00
2:16 AM,51.3,41.9,70,29.94,10.0,Calm,Calm,-,N/A,,Clear,0,2013-06-30 06:16:00
2:36 AM,50.7,41.9,72,29.94,10.0,North,4.6,-,N/A,,Clear,360,2013-06-30 06:36:00
2:57 AM,49.5,41.0,73,29.94,10.0,Calm,Calm,-,N/A,,Clear,0,2013-06-30 06:57:00
3:16 AM,48.7,41.0,75,29.94,10.0,Calm,Calm,-,N/A,,Clear,0,2013-06-30 07:16:00
3:36 AM,49.1,40.8,73,29.94,10.0,Calm,Calm,-,N/A,,Clear,0,2013-06-30 07:36:00
3:56 AM,46.6,40.6,80,29.95,10.0,Calm,Calm,-,N/A,,Clear,0,2013-06-30 07:56:00
4:16 AM,45.5,39.9,81,29.95,10.0,Calm,Calm,-,N/A,,Clear,0,2013-06-30 08:16:00
4:37 AM,46.6,40.1,78,29.96,10.0,Calm,Calm,-,N/A,,Clear,0,2013-06-30 08:37:00
4:56 AM,46.0,39.6,78,29.96,10.0,Calm,Calm,-,N/A,,Clear,0,2013-06-30 08:56:00
5:16 AM,45.5,39.2,79,29.96,10.0,NNW,4.6,-,N/A,,Clear,340,2013-06-30 09:16:00
5:37 AM,47.1,39.2,74,29.97,10.0,North,5.8,-,N/A,,Clear,360,2013-06-30 09:37:00
5:56 AM,46.8,38.8,74,29.97,10.0,North,4.6,-,N/A,,Clear,350,2013-06-30 09:56:00
6:50 AM,50.0,41.0,71,29.99,10.0,Calm,Calm,-,N/A,,Clear,0,2013-06-30 10:50:00
7:50 AM,57.2,44.6,63,30.00,10.0,North,5.8,-,N/A,,Clear,10,2013-06-30 11:50:00
8:50 AM,62.6,42.8,48,30.02,10.0,North,9.2,-,N/A,,Clear,10,2013-06-30 12:50:00
9:55 AM,64.4,44.6,49,30.04,10.0,NE,9.2,-,N/A,,Clear,40,2013-06-30 13:55:00
10:50 AM,66.2,42.8,43,30.04,10.0,NNE,8.1,-,N/A,,Clear,20,2013-06-30 14:50:00
11:50 AM,68.0,42.8,40,30.05,10.0,NNE,5.8,-,N/A,,Clear,30,2013-06-30 15:50:00
12:50 PM,69.8,42.8,38,30.06,10.0,NE,10.4,-,N/A,,Clear,40,2013-06-30 16:50:00
1:50 PM,71.6,39.2,31,30.06,10.0,North,6.9,-,N/A,,Clear,360,2013-06-30 17:50:00
2:50 PM,73.4,39.2,29,30.06,10.0,NE,10.4,-,N/A,,Clear,40,2013-06-30 18:50:00
3:50 PM,73.4,41.0,31,30.06,10.0,NNE,9.2,16.1,N/A,,Clear,20,2013-06-30 19:50:00
4:50 PM,75.2,41.0,29,30.06,10.0,NNE,10.4,-,N/A,,Clear,30,2013-06-30 20:50:00
5:50 PM,75.2,39.2,27,30.06,10.0,NNE,10.4,-,N/A,,Clear,30,2013-06-30 21:50:00
6:50 PM,73.4,41.0,31,30.06,10.0,NNE,8.1,-,N/A,,Clear,30,2013-06-30 22:50:00
7:50 PM,71.6,41.0,33,30.07,10.0,NNE,8.1,-,N/A,,Clear,30,2013-06-30 23:50:00
8:50 PM,39.2,37.4,93,30.07,10.0,NE,3.5,-,N/A,,Clear,50,2013-07-01 00:50:00
9:50 PM,66.2,35.6,32,30.08,10.0,Calm,Calm,-,N/A,,Clear,0,2013-07-01 01:50:00
10:16 PM,62.2,40.8,45,30.09,10.0,Calm,Calm,-,N/A,,Clear,0,2013-07-01 02:16:00
10:37 PM,61.2,42.8,51,30.09,10.0,Calm,Calm,-,N/A,,Clear,0,2013-07-01 02:37:00
10:56 PM,59.0,44.8,59,30.10,10.0,North,3.5,-,N/A,,Clear,10,2013-07-01 02:56:00
11:16 PM,57.2,43.0,59,30.10,10.0,Calm,Calm,-,N/A,,Clear,0,2013-07-01 03:16:00
11:37 PM,57.2,41.9,57,30.10,10.0,Calm,Calm,-,N/A,,Clear,0,2013-07-01 03:37:00
11:56 PM,56.3,40.8,56,30.11,10.0,Calm,Calm,-,N/A,,Clear,0,2013-07-01 03:56:00